JST458 YSSY-YMML

Flight info

Callsign JST458
Flight time 1h 6m
Altitude 31000
Route DCT ML H129 DOSEL Y59 RIVET RIVET4
Aircraft A320/M-VGDW/C

Departure

Time 2026-04-30 07:13
Airport Sydney Kingsford Smith International Airport (YSSY)

Arrival

Time 2026-04-30 08:20
Airport Melbourne Airport (YMML)
Time Latitude Longitude Altitude Speed Heading
2026-04-30 06:39 -33.93524 151.17764 30 ft 0 kts 279°
2026-04-30 06:54 -33.93525 151.17776 30 ft 2 kts 279°
2026-04-30 06:54 -33.93528 151.17796 30 ft 2 kts 279°
2026-04-30 06:54 -33.93530 151.17817 30 ft 2 kts 234°
2026-04-30 06:55 -33.93522 151.17826 30 ft 0 kts 194°
2026-04-30 06:57 -33.93530 151.17824 30 ft 4 kts 189°
2026-04-30 06:57 -33.93567 151.17823 30 ft 6 kts 181°
2026-04-30 06:57 -33.93620 151.17821 30 ft 9 kts 185°
2026-04-30 06:57 -33.93686 151.17800 30 ft 11 kts 196°
2026-04-30 06:58 -33.93725 151.17737 30 ft 11 kts 280°
2026-04-30 06:58 -33.93760 151.17688 30 ft 11 kts 159°
2026-04-30 06:58 -33.93844 151.17698 29 ft 13 kts 206°
2026-04-30 06:58 -33.93871 151.17651 29 ft 1 kts 239°
2026-04-30 06:59 -33.93875 151.17643 29 ft 0 kts 239°
2026-04-30 06:59 -33.93876 151.17641 29 ft 0 kts 238°
2026-04-30 07:01 -33.93885 151.17628 29 ft 6 kts 229°
2026-04-30 07:01 -33.93944 151.17622 29 ft 12 kts 169°
2026-04-30 07:02 -33.94038 151.17666 28 ft 16 kts 134°
2026-04-30 07:02 -33.94049 151.17795 29 ft 15 kts 112°
2026-04-30 07:02 -33.94145 151.17843 29 ft 16 kts 170°
2026-04-30 07:02 -33.94260 151.17872 30 ft 18 kts 168°
2026-04-30 07:03 -33.94389 151.17905 30 ft 20 kts 167°
2026-04-30 07:03 -33.94529 151.17885 30 ft 21 kts 177°
2026-04-30 07:03 -33.94680 151.17921 30 ft 23 kts 168°
2026-04-30 07:03 -33.94841 151.17962 30 ft 25 kts 166°
2026-04-30 07:04 -33.95006 151.18005 30 ft 17 kts 168°
2026-04-30 07:04 -33.95100 151.18075 30 ft 17 kts 100°
2026-04-30 07:04 -33.95080 151.18220 30 ft 19 kts 77°
2026-04-30 07:04 -33.95051 151.18377 30 ft 18 kts 78°
2026-04-30 07:05 -33.95046 151.18407 29 ft 0 kts 79°
2026-04-30 07:07 -33.95046 151.18408 29 ft 1 kts 79°
2026-04-30 07:07 -33.95042 151.18459 30 ft 11 kts 96°
2026-04-30 07:08 -33.95109 151.18540 30 ft 15 kts 143°
2026-04-30 07:08 -33.95195 151.18629 30 ft 17 kts 138°
2026-04-30 07:08 -33.95300 151.18713 30 ft 19 kts 160°
2026-04-30 07:08 -33.95438 151.18751 30 ft 21 kts 168°
2026-04-30 07:09 -33.95590 151.18790 30 ft 23 kts 168°
2026-04-30 07:09 -33.95756 151.18830 30 ft 25 kts 168°
2026-04-30 07:09 -33.95933 151.18878 30 ft 27 kts 168°
2026-04-30 07:09 -33.96055 151.18910 30 ft 28 kts 168°
2026-04-30 07:10 -33.96319 151.18980 30 ft 30 kts 166°
2026-04-30 07:10 -33.96455 151.19013 30 ft 31 kts 168°
2026-04-30 07:10 -33.96658 151.19067 30 ft 28 kts 168°
2026-04-30 07:10 -33.96801 151.19063 30 ft 21 kts 178°
2026-04-30 07:11 -33.96952 151.19098 30 ft 23 kts 168°
2026-04-30 07:11 -33.97081 151.19134 30 ft 11 kts 165°
2026-04-30 07:11 -33.97124 151.19204 30 ft 13 kts 89°
2026-04-30 07:11 -33.97116 151.19260 29 ft 0 kts 77°
2026-04-30 07:12 -33.97115 151.19263 29 ft 2 kts 77°
2026-04-30 07:12 -33.97098 151.19325 31 ft 14 kts 59°
2026-04-30 07:12 -33.97000 151.19356 24 ft 17 kts 349°
2026-04-30 07:13 -33.96753 151.19288 23 ft 68 kts 347°
2026-04-30 07:13 -33.96090 151.19113 28 ft 123 kts 347°
2026-04-30 07:13 -33.95129 151.18866 233 ft 145 kts 342°
2026-04-30 07:13 -33.94143 151.18738 860 ft 148 kts 353°
2026-04-30 07:14 -33.93126 151.19165 1417 ft 165 kts 26°
2026-04-30 07:14 -33.92370 151.20268 1852 ft 184 kts 63°
2026-04-30 07:14 -33.92269 151.21874 2018 ft 205 kts 109°
2026-04-30 07:14 -33.92900 151.23429 2337 ft 210 kts 123°
2026-04-30 07:15 -33.93589 151.25015 2721 ft 223 kts 114°
2026-04-30 07:15 -33.93828 151.26951 2943 ft 246 kts 88°
2026-04-30 07:15 -33.93764 151.29089 3249 ft 267 kts 87°
2026-04-30 07:15 -33.93688 151.31421 3725 ft 286 kts 88°
2026-04-30 07:16 -33.93607 151.33843 4530 ft 292 kts 87°
2026-04-30 07:16 -33.93527 151.36307 5378 ft 297 kts 87°
2026-04-30 07:16 -33.93450 151.38808 6236 ft 300 kts 88°
2026-04-30 07:16 -33.93373 151.41328 7077 ft 303 kts 88°
2026-04-30 07:17 -33.93295 151.43875 7930 ft 306 kts 88°
2026-04-30 07:17 -33.93215 151.46455 8723 ft 310 kts 88°
2026-04-30 07:17 -33.93598 151.51658 10185 ft 319 kts 111°
2026-04-30 07:18 -33.94659 151.54041 10655 ft 328 kts 130°
2026-04-30 07:18 -33.96289 151.55997 10849 ft 344 kts 149°
2026-04-30 07:18 -33.98458 151.57319 10973 ft 357 kts 168°
2026-04-30 07:18 -34.00928 151.57672 11258 ft 360 kts 189°
2026-04-30 07:19 -34.03334 151.56966 11808 ft 356 kts 208°
2026-04-30 07:19 -34.05372 151.55336 12400 ft 351 kts 227°
2026-04-30 07:19 -34.06973 151.53114 13007 ft 351 kts 233°
2026-04-30 07:19 -34.08513 151.50826 13631 ft 353 kts 234°
2026-04-30 07:20 -34.10053 151.48504 14221 ft 357 kts 234°
2026-04-30 07:20 -34.11611 151.46144 14805 ft 360 kts 234°
2026-04-30 07:20 -34.13175 151.43775 15339 ft 362 kts 234°
2026-04-30 07:20 -34.14756 151.41385 15862 ft 366 kts 234°
2026-04-30 07:21 -34.16351 151.38979 16386 ft 368 kts 234°
2026-04-30 07:21 -34.17962 151.36556 16871 ft 371 kts 234°
2026-04-30 07:21 -34.19584 151.34114 17363 ft 374 kts 234°
2026-04-30 07:21 -34.21215 151.31653 17847 ft 377 kts 234°
2026-04-30 07:22 -34.24519 151.26664 18829 ft 383 kts 234°
2026-04-30 07:22 -34.26190 151.24137 19289 ft 387 kts 234°
2026-04-30 07:22 -34.27897 151.21551 19445 ft 399 kts 234°
2026-04-30 07:23 -34.29643 151.18908 19796 ft 404 kts 234°
2026-04-30 07:23 -34.31407 151.16240 20236 ft 407 kts 234°
2026-04-30 07:23 -34.33173 151.13567 20824 ft 406 kts 234°
2026-04-30 07:23 -34.34928 151.10909 21400 ft 405 kts 234°
2026-04-30 07:24 -34.36679 151.08251 21947 ft 403 kts 234°
2026-04-30 07:24 -34.38429 151.05594 22473 ft 403 kts 234°
2026-04-30 07:24 -34.40177 151.02944 22985 ft 402 kts 234°
2026-04-30 07:24 -34.41939 151.00267 23136 ft 411 kts 234°
2026-04-30 07:25 -34.43731 150.97534 23324 ft 417 kts 234°
2026-04-30 07:25 -34.45535 150.94776 23703 ft 418 kts 234°
2026-04-30 07:25 -34.47342 150.92022 24152 ft 418 kts 234°
2026-04-30 07:25 -34.49147 150.89272 24614 ft 417 kts 234°
2026-04-30 07:26 -34.50949 150.86523 25079 ft 416 kts 234°
2026-04-30 07:26 -34.52743 150.83776 25546 ft 415 kts 234°
2026-04-30 07:26 -34.54538 150.81030 26002 ft 414 kts 234°
2026-04-30 07:26 -34.56323 150.78294 26462 ft 413 kts 234°
2026-04-30 07:27 -34.58061 150.75521 26921 ft 412 kts 236°
2026-04-30 07:27 -34.59754 150.72719 27385 ft 411 kts 236°
2026-04-30 07:27 -34.61424 150.69901 27805 ft 411 kts 237°
2026-04-30 07:27 -34.63095 150.67066 28059 ft 416 kts 237°
2026-04-30 07:28 -34.64799 150.64186 28187 ft 424 kts 236°
2026-04-30 07:28 -34.66542 150.61260 28315 ft 430 kts 236°
2026-04-30 07:28 -34.68316 150.58299 28441 ft 436 kts 236°
2026-04-30 07:28 -34.70119 150.55300 28569 ft 442 kts 236°
2026-04-30 07:29 -34.71944 150.52271 28694 ft 448 kts 236°
2026-04-30 07:29 -34.73796 150.49196 28820 ft 453 kts 236°
2026-04-30 07:29 -34.75662 150.46092 29047 ft 455 kts 236°
2026-04-30 07:29 -34.77527 150.42979 29345 ft 456 kts 236°
2026-04-30 07:30 -34.81255 150.36738 30063 ft 455 kts 236°
2026-04-30 07:30 -34.83117 150.33617 30349 ft 455 kts 236°
2026-04-30 07:31 -34.86850 150.27357 30412 ft 458 kts 236°
2026-04-30 07:31 -34.90598 150.21052 30414 ft 461 kts 236°
2026-04-30 07:32 -34.94336 150.14753 30412 ft 462 kts 236°
2026-04-30 07:32 -34.98101 150.08408 30414 ft 462 kts 236°
2026-04-30 07:33 -35.01858 150.02066 30412 ft 461 kts 236°
2026-04-30 07:33 -35.05614 149.95720 30412 ft 461 kts 236°
2026-04-30 07:34 -35.09370 149.89358 30414 ft 462 kts 236°
2026-04-30 07:34 -35.13118 149.82990 30412 ft 462 kts 236°
2026-04-30 07:35 -35.16861 149.76613 30413 ft 462 kts 236°
2026-04-30 07:35 -35.20601 149.70223 30412 ft 462 kts 236°
2026-04-30 07:36 -35.24344 149.63831 30414 ft 462 kts 236°
2026-04-30 07:36 -35.28088 149.57442 30413 ft 463 kts 236°
2026-04-30 07:37 -35.31835 149.51023 30412 ft 463 kts 236°
2026-04-30 07:37 -35.35581 149.44592 30413 ft 463 kts 236°
2026-04-30 07:38 -35.39321 149.38164 30412 ft 463 kts 237°
2026-04-30 07:38 -35.43047 149.31734 30413 ft 463 kts 237°
2026-04-30 07:39 -35.46781 149.25295 30412 ft 462 kts 237°
2026-04-30 07:39 -35.50504 149.18851 30413 ft 464 kts 237°
2026-04-30 07:40 -35.54225 149.12391 30411 ft 463 kts 237°
2026-04-30 07:40 -35.57942 149.05936 30412 ft 462 kts 237°
2026-04-30 07:41 -35.61646 148.99488 30412 ft 463 kts 237°
2026-04-30 07:41 -35.65369 148.93004 30413 ft 465 kts 237°
2026-04-30 07:42 -35.69104 148.86481 30414 ft 467 kts 237°
2026-04-30 07:42 -35.72808 148.80004 30412 ft 466 kts 237°
2026-04-30 07:43 -35.76550 148.73447 30412 ft 467 kts 237°
2026-04-30 07:43 -35.80280 148.66907 30411 ft 466 kts 237°
2026-04-30 07:44 -35.84000 148.60363 30412 ft 466 kts 237°
2026-04-30 07:44 -35.87715 148.53803 30412 ft 467 kts 237°
2026-04-30 07:45 -35.91434 148.47222 30412 ft 467 kts 237°
2026-04-30 07:45 -35.95144 148.40639 30412 ft 467 kts 237°
2026-04-30 07:46 -35.98839 148.34056 30411 ft 466 kts 237°
2026-04-30 07:46 -36.02522 148.27482 30413 ft 465 kts 237°
2026-04-30 07:47 -36.06211 148.20887 30411 ft 466 kts 237°
2026-04-30 07:47 -36.09878 148.14320 30412 ft 463 kts 237°
2026-04-30 07:48 -36.13530 148.07766 30412 ft 461 kts 237°
2026-04-30 07:48 -36.17155 148.01301 30412 ft 459 kts 237°
2026-04-30 07:49 -36.20800 147.94787 30412 ft 461 kts 237°
2026-04-30 07:49 -36.24436 147.88264 30412 ft 460 kts 237°
2026-04-30 07:50 -36.28065 147.81725 30413 ft 460 kts 237°
2026-04-30 07:50 -36.31694 147.75180 30411 ft 461 kts 237°
2026-04-30 07:51 -36.35338 147.68608 30413 ft 462 kts 237°
2026-04-30 07:51 -36.38946 147.62064 30412 ft 463 kts 238°
2026-04-30 07:52 -36.42571 147.55459 30413 ft 462 kts 238°
2026-04-30 07:52 -36.46189 147.48871 30412 ft 461 kts 238°
2026-04-30 07:53 -36.49794 147.42304 30412 ft 460 kts 238°
2026-04-30 07:53 -36.53393 147.35722 30412 ft 459 kts 238°
2026-04-30 07:54 -36.56984 147.29137 30412 ft 461 kts 238°
2026-04-30 07:54 -36.60589 147.22522 30413 ft 463 kts 238°
2026-04-30 07:55 -36.64198 147.15891 30415 ft 463 kts 238°
2026-04-30 07:55 -36.67176 147.10409 30412 ft 460 kts 238°
2026-04-30 07:56 -36.70779 147.03764 30412 ft 462 kts 238°
2026-04-30 07:56 -36.74365 146.97134 30412 ft 460 kts 238°
2026-04-30 07:57 -36.77941 146.90508 30411 ft 461 kts 238°
2026-04-30 07:57 -36.81515 146.83875 30412 ft 460 kts 238°
2026-04-30 07:58 -36.85100 146.77222 30412 ft 463 kts 238°
2026-04-30 07:58 -36.88682 146.70556 30412 ft 462 kts 238°
2026-04-30 07:59 -36.92245 146.63889 30415 ft 462 kts 238°
2026-04-30 07:59 -36.95788 146.57246 30412 ft 461 kts 238°
2026-04-30 08:00 -37.01134 146.47231 30413 ft 462 kts 238°
2026-04-30 08:00 -37.04698 146.40530 30413 ft 464 kts 238°
2026-04-30 08:01 -37.08267 146.33809 30413 ft 462 kts 238°
2026-04-30 08:01 -37.11822 146.27115 30412 ft 461 kts 238°
2026-04-30 08:02 -37.15321 146.20494 29647 ft 448 kts 238°
2026-04-30 08:02 -37.17030 146.17253 28994 ft 444 kts 238°
2026-04-30 08:03 -37.20434 146.10783 27272 ft 445 kts 238°
2026-04-30 08:03 -37.23851 146.04291 25324 ft 448 kts 238°
2026-04-30 08:03 -37.25573 146.01015 24365 ft 449 kts 238°
2026-04-30 08:04 -37.27277 145.97766 23618 ft 443 kts 238°
2026-04-30 08:04 -37.28962 145.94554 22876 ft 437 kts 239°
2026-04-30 08:04 -37.30625 145.91383 22083 ft 432 kts 238°
2026-04-30 08:04 -37.32268 145.88255 21293 ft 428 kts 238°
2026-04-30 08:05 -37.33898 145.85150 20554 ft 423 kts 239°
2026-04-30 08:05 -37.35483 145.82125 19781 ft 418 kts 239°
2026-04-30 08:05 -37.37078 145.79083 18998 ft 415 kts 239°
2026-04-30 08:05 -37.38655 145.76078 18297 ft 409 kts 239°
2026-04-30 08:06 -37.40212 145.73108 17549 ft 404 kts 239°
2026-04-30 08:06 -37.41746 145.70175 16861 ft 398 kts 239°
2026-04-30 08:06 -37.43254 145.67286 16155 ft 393 kts 239°
2026-04-30 08:06 -37.44750 145.64419 15425 ft 390 kts 239°
2026-04-30 08:07 -37.46266 145.61598 14660 ft 388 kts 237°
2026-04-30 08:07 -37.47828 145.58853 14022 ft 383 kts 236°
2026-04-30 08:07 -37.49408 145.56173 13372 ft 379 kts 236°
2026-04-30 08:07 -37.50952 145.53585 13154 ft 361 kts 236°
2026-04-30 08:08 -37.52440 145.51083 12637 ft 354 kts 236°
2026-04-30 08:08 -37.53903 145.48604 12092 ft 349 kts 236°
2026-04-30 08:08 -37.55337 145.46150 11502 ft 346 kts 236°
2026-04-30 08:08 -37.56753 145.43714 10938 ft 342 kts 236°
2026-04-30 08:09 -37.58134 145.41330 10535 ft 334 kts 237°
2026-04-30 08:09 -37.59493 145.38978 10052 ft 328 kts 237°
2026-04-30 08:09 -37.60828 145.36660 9519 ft 325 kts 237°
2026-04-30 08:09 -37.62119 145.34422 9244 ft 308 kts 237°
2026-04-30 08:10 -37.63331 145.32332 9122 ft 282 kts 237°
2026-04-30 08:10 -37.64445 145.30412 8929 ft 263 kts 237°
2026-04-30 08:10 -37.65505 145.28577 8467 ft 256 kts 238°
2026-04-30 08:10 -37.66543 145.26769 7953 ft 253 kts 238°
2026-04-30 08:11 -37.67566 145.24986 7414 ft 251 kts 238°
2026-04-30 08:11 -37.68588 145.23203 6873 ft 249 kts 238°
2026-04-30 08:11 -37.69596 145.21441 6309 ft 247 kts 238°
2026-04-30 08:11 -37.70600 145.19692 5773 ft 245 kts 238°
2026-04-30 08:12 -37.71596 145.17957 5299 ft 244 kts 238°
2026-04-30 08:12 -37.72587 145.16233 5130 ft 242 kts 238°
2026-04-30 08:12 -37.73575 145.14509 5122 ft 243 kts 238°
2026-04-30 08:12 -37.74565 145.12781 4992 ft 242 kts 238°
2026-04-30 08:13 -37.75557 145.11056 4865 ft 242 kts 238°
2026-04-30 08:13 -37.76543 145.09343 4739 ft 241 kts 238°
2026-04-30 08:13 -37.77527 145.07632 4613 ft 241 kts 238°
2026-04-30 08:13 -37.78511 145.05912 4494 ft 241 kts 238°
2026-04-30 08:14 -37.79486 145.04209 4361 ft 239 kts 238°
2026-04-30 08:14 -37.80460 145.02507 4238 ft 239 kts 237°
2026-04-30 08:14 -37.81304 145.00728 4110 ft 232 kts 249°
2026-04-30 08:14 -37.81727 144.98812 3993 ft 222 kts 259°
2026-04-30 08:15 -37.82056 144.96945 3872 ft 212 kts 258°
2026-04-30 08:15 -37.82365 144.95172 3755 ft 202 kts 259°
2026-04-30 08:15 -37.82643 144.93484 3654 ft 189 kts 261°
2026-04-30 08:15 -37.82845 144.91925 3563 ft 174 kts 263°
2026-04-30 08:16 -37.83027 144.90408 3513 ft 176 kts 263°
2026-04-30 08:16 -37.83206 144.88875 3418 ft 175 kts 265°
2026-04-30 08:16 -37.82980 144.87474 3319 ft 156 kts 298°
2026-04-30 08:16 -37.82113 144.86637 3142 ft 169 kts 335°
2026-04-30 08:17 -37.80944 144.86384 2914 ft 174 kts 342°
2026-04-30 08:17 -37.79739 144.86165 2669 ft 176 kts 341°
2026-04-30 08:17 -37.78510 144.85942 2424 ft 176 kts 342°
2026-04-30 08:17 -37.77321 144.85725 2188 ft 174 kts 342°
2026-04-30 08:18 -37.76117 144.85503 1971 ft 175 kts 342°
2026-04-30 08:18 -37.74914 144.85282 1722 ft 174 kts 343°
2026-04-30 08:18 -37.73723 144.85065 1489 ft 172 kts 342°
2026-04-30 08:18 -37.72539 144.84847 1270 ft 172 kts 342°
2026-04-30 08:19 -37.71408 144.84644 1048 ft 154 kts 342°
2026-04-30 08:19 -37.70372 144.84457 830 ft 147 kts 343°
2026-04-30 08:19 -37.69374 144.84261 568 ft 142 kts 342°
2026-04-30 08:19 -37.68403 144.84058 357 ft 137 kts 346°
2026-04-30 08:20 -37.67671 144.83921 360 ft 65 kts 352°
2026-04-30 08:20 -37.67298 144.83855 373 ft 54 kts 353°
2026-04-30 08:20 -37.67004 144.83827 381 ft 30 kts 359°
2026-04-30 08:20 -37.66896 144.83827 385 ft 11 kts